Location: Acheville
(50.3840°N, 2.8827°E)
Time: 19:28:23
(UTC+00:00)

CZ-2C R/B - Pass Details

Date: 24 October 2021
Orbit: 784 x 871 km, 98.2° (Epoch: 06 December)

Event Time Altitude Azimuth Distance (km) Brightness Sun altitude
Rises 18:38:30 0° 12° (NNE) 3,471 5.8 -19.7°
Reaches altitude 10° 18:40:55 10° 9° (N) 2,524 5.1 -20.1°
Maximum altitude 18:46:28 64° 290° (WNW) 955 3.2 -21.0°
Drops below altitude 10° 18:51:53 10° 210° (SSW) 2,468 5.4 -21.8°
Sets 18:54:14 0° 207° (SSW) 3,387 6.1 -22.2°
